Tracking 19576 objects as of 17-Feb-2019
HD Live streaming from Space Station
objects crossing your sky now

QUAKESAT

Track QUAKESAT now!
10-day predictions
QUAKESAT is classified as:


NORAD ID: 27845
Int'l Code: 2003-031F
Perigee: 818.1 km
Apogee: 832.2 km
Inclination: 98.7 °
Period: 101.3 minutes
Semi major axis: 7196 km
RCS: 0.2303 m2 (medium)
Launch date: June 30, 2003
Source: United States (US)
Launch site: PLESETSK MISSILE AND SPACE COMPLEX (PKMTR)

Uplink (MHz):
Downlink (MHz): 436.682
Beacon (MHz): 436.682
Mode: 9600bps FSK
Call sign: KD7OVB
Status: Inactive


Nanosatellite; research on early warning for earthquakes.
aabbcc
Your satellite tracking list
Your tracking list is empty




NASA's NSSDC Master Catalog

Two Line Element Set (TLE):
1 27845U 03031F   19047.95473859 +.00000076 +00000-0 +54017-4 0  9998
2 27845 098.6875 059.2718 0009756 050.8449 309.3594 14.22174964810833
Source of the keplerian elements: AFSPC